User: anonymous   Login
Location: Chacón
(10.5789°N, 66.9317°W)
Time: 20:45:48
(UTC+00:00)
Language:

Delta 7925 Rocket - Orbit

View from above orbital plane
View from above orbital plane
View from above satellite
View from above satellite

Ground track
Ground track

The orbit data is extracted from the following two-line orbital elements,

1 24809U 97025B   24205.45437206  .00000395  00000-0  15634-3 0  9999
2 24809  26.2946 209.4459 0664061 207.7975 148.5475 13.30562179321510
Epoch (UTC): 23 July 2024 10:54:17
Eccentricity: 0.0664061
inclination: 26.2946°
perigee height: 645 km
apogee height: 1644 km
right ascension of ascending node: 209.4459°
argument of perigee: 207.7975°
revolutions per day: 13.30562179
mean anomaly at epoch: 148.5475°
orbit number at epoch: 32151

The dashed part of the orbit path shows where the satellite is in the earth's shadow,  

DLR